This demonstration page uses our WeatherBlox Daily Observations layout. Learn more.

Left ArrowRight Arrow

Hourly Observations for September 6, 2017

Temp ( °F °C ) Dew Point ( °F °C ) Humidity (%) Winds ( mph kmh ) Pressure ( in mb ) Visibility ( mi km ) Precip ( " mm )
12:10 am 00:10 Clear 55 13 46 8 72 72 WNW 7 11 29.94 1014 10 16 N/A
12:30 am 00:30 Clear 55 13 46 8 72 72 WNW 8 13 29.94 1014 10 16 N/A
12:49 am 00:49 Clear 55 13 46 8 72 72 WNW 7 11 29.97 1015 10 16 N/A
1:10 am 01:10 Clear 55 13 46 8 72 72 WNW 6 9 29.94 1014 10 16 N/A
1:30 am 01:30 Clear 54 12 46 8 77 77 NW 3 6 29.97 1015 10 16 N/A
1:49 am 01:49 Clear 52 11 46 8 82 82 N N/A 29.94 1014 10 16 N/A
2:10 am 02:10 Clear 50 10 46 8 88 88 N N/A 30.00 1016 10 16 N/A
2:30 am 02:30 Clear 50 10 46 8 88 88 N N/A 30.00 1016 10 16 N/A
2:49 am 02:49 Clear 48 9 46 8 94 94 N N/A 30.00 1016 10 16 N/A
3:10 am 03:10 Clear 48 9 46 8 94 94 N N/A 30.00 1016 10 16 N/A
3:30 am 03:30 Clear 48 9 45 7 87 87 N N/A 30.00 1016 10 16 N/A
3:49 am 03:49 Clear 48 9 45 7 87 87 N N/A 30.00 1016 10 16 N/A
4:10 am 04:10 Clear 48 9 45 7 87 87 N N/A 30.00 1016 10 16 N/A
4:30 am 04:30 Clear 48 9 45 7 87 87 N N/A 30.00 1016 10 16 N/A
4:49 am 04:49 Clear 48 9 45 7 87 87 N N/A 30.00 1016 10 16 N/A
5:10 am 05:10 Clear 46 8 43 6 87 87 N N/A 30.00 1016 10 16 N/A
5:30 am 05:30 Clear 46 8 43 6 87 87 WSW 3 6 30.00 1016 10 16 N/A
5:49 am 05:49 Clear 45 7 43 6 93 93 WSW 5 7 30.00 1016 10 16 N/A
6:10 am 06:10 Clear 45 7 43 6 93 93 W 5 7 30.00 1016 10 16 N/A
6:29 am 06:29 Clear 45 7 43 6 93 93 W 6 9 30.00 1016 10 16 N/A
6:49 am 06:49 Clear 45 7 43 6 93 93 W 5 7 30.00 1016 10 16 N/A
7:10 am 07:10 Clear 45 7 43 6 93 93 W 6 9 30.00 1016 10 16 N/A
7:29 am 07:29 Sunny 46 8 45 7 93 93 W 6 9 30.00 1016 10 16 N/A
7:49 am 07:49 Sunny 45 7 45 7 100 100 W 5 7 30.00 1016 10 16 N/A
8:10 am 08:10 Sunny 46 8 45 7 93 93 W 5 7 30.00 1016 10 16 N/A
8:29 am 08:29 Sunny 50 10 46 8 88 88 W 5 7 30.00 1016 10 16 N/A
8:49 am 08:49 Sunny 50 10 46 8 88 88 W 5 7 30.00 1016 10 16 N/A
9:10 am 09:10 Sunny 54 12 48 9 82 82 W 6 9 29.97 1015 10 16 N/A
9:29 am 09:29 Sunny 54 12 48 9 82 82 WNW 8 13 29.97 1015 10 16 N/A
9:49 am 09:49 Sunny 55 13 48 9 77 77 WNW 8 13 29.97 1015 10 16 N/A
10:10 am 10:10 Sunny 57 14 48 9 72 72 WNW 7 11 29.97 1015 10 16 N/A
10:29 am 10:29 Sunny 59 15 48 9 68 68 WNW 6 9 30.00 1016 10 16 N/A
10:49 am 10:49 Sunny 61 16 46 8 59 59 NW 8 13 30.00 1016 10 16 N/A
11:10 am 11:10 Partly Cloudy 61 16 45 7 55 55 NW 10 17 30.00 1016 10 16 N/A
11:29 am 11:29 Sunny 63 17 45 7 52 52 NW 8 13 30.00 1016 10 16 N/A
11:50 am 11:50 Sunny 63 17 45 7 52 52 NNW 10 17 30.00 1016 10 16 N/A
12:10 pm 12:10 Partly Cloudy 63 17 45 7 52 52 NNW 10 17 30.00 1016 10 16 N/A
12:29 pm 12:29 Mostly Cloudy 63 17 45 7 52 52 NNW 7 11 30.00 1016 10 16 N/A
12:50 pm 12:50 Mostly Cloudy 63 17 45 7 52 52 N 9 15 30.00 1016 10 16 N/A
1:10 pm 13:10 Mostly Cloudy 63 17 45 7 52 52 NW 8 13 30.00 1016 10 16 N/A
1:29 pm 13:29 Mostly Cloudy 64 18 45 7 49 49 W 7 11 30.00 1016 10 16 N/A
1:50 pm 13:50 Mostly Cloudy 64 18 45 7 49 49 NNW 8 13 30.00 1016 10 16 N/A
2:10 pm 14:10 Partly Cloudy 64 18 45 7 49 49 W 7 11 30.00 1016 10 16 N/A
2:29 pm 14:29 Mostly Cloudy 63 17 45 7 52 52 WNW 7 11 30.00 1016 10 16 N/A
2:50 pm 14:50 Mostly Cloudy 63 17 45 7 52 52 W 9 15 30.00 1016 10 16 N/A
3:10 pm 15:10 Cloudy 63 17 45 7 52 52 W 7 11 30.00 1016 10 16 N/A
3:29 pm 15:29 Cloudy 64 18 46 8 52 52 W 9 15 30.00 1016 10 16 N/A
3:50 pm 15:50 Cloudy 64 18 45 7 49 49 W 7 11 30.00 1016 10 16 N/A
4:10 pm 16:10 Cloudy 66 19 43 6 43 43 W 9 15 29.97 1015 10 16 N/A
4:29 pm 16:29 Mostly Cloudy 66 19 45 7 46 46 WNW 12 19 29.97 1015 10 16 N/A
4:50 pm 16:50 Cloudy 63 17 46 8 56 56 NNW 7 11 29.97 1015 10 16 N/A
5:10 pm 17:10 Cloudy 63 17 46 8 56 56 NNW 7 11 29.97 1015 10 16 N/A
5:29 pm 17:29 Mostly Cloudy 63 17 46 8 56 56 WNW 10 17 29.97 1015 10 16 N/A
5:50 pm 17:50 Mostly Cloudy 64 18 45 7 49 49 W 9 15 29.97 1015 10 16 N/A
6:10 pm 18:10 Mostly Cloudy 66 19 46 8 49 49 WNW 16 26 29.97 1015 10 16 N/A
6:29 pm 18:29 Cloudy 61 16 48 9 63 63 N 7 11 30.00 1016 10 16 N/A
6:50 pm 18:50 Cloudy 57 14 50 10 77 77 W 10 17 30.00 1016 10 16 N/A
7:10 pm 19:10 Cloudy 55 13 50 10 82 82 NNE 5 7 30.00 1016 10 16 N/A
7:29 pm 19:29 Cloudy 54 12 52 11 94 94 E 6 9 30.00 1016 3 4 N/A
7:50 pm 19:50 Cloudy 54 12 52 11 94 94 S 5 7 30.03 1017 10 16 N/A
8:09 pm 20:09 Cloudy 54 12 52 11 94 94 SSE 3 6 30.03 1017 10 16 N/A
8:30 pm 20:30 Cloudy 54 12 52 11 94 94 SSE 3 6 30.03 1017 10 16 N/A
8:50 pm 20:50 Cloudy 54 12 52 11 94 94 N N/A 30.03 1017 10 16 N/A
9:09 pm 21:09 Cloudy 54 12 52 11 94 94 SW 5 7 30.03 1017 4 6 N/A
9:30 pm 21:30 Cloudy 54 12 52 11 94 94 S 3 6 30.03 1017 10 16 N/A
9:50 pm 21:50 Cloudy 54 12 52 11 94 94 W 5 7 30.09 1019 10 16 N/A
10:09 pm 22:09 Cloudy 54 12 52 11 94 94 S 3 6 30.03 1017 10 16 N/A
10:30 pm 22:30 Mostly Cloudy 52 11 52 11 100 100 N N/A 30.06 1018 10 16 N/A
10:49 pm 22:49 Clear 52 11 50 10 94 94 WSW 3 6 30.06 1018 10 16 N/A
11:10 pm 23:10 Clear 50 10 50 10 100 100 N N/A 30.06 1018 10 16 N/A
11:30 pm 23:30 Clear 48 9 48 9 100 100 N N/A 30.06 1018 7 11 N/A
11:49 pm 23:49 Mostly Cloudy 46 8 46 8 100 100 N N/A 30.09 1019 1 1 N/A

Powered by AerisWeather